www.pogodaiklimat.ru
ПОГОДА в Учкудуке

Архив погоды в Учкудуке (Навоийская область, Узбекистан)

Время
и дата
03:00 17.04
03:10 17.04
03:20 17.04
03:30 17.04
03:40 17.04
03:50 17.04
04:00 17.04
04:10 17.04
04:20 17.04
04:30 17.04
04:40 17.04
04:50 17.04
05:00 17.04
05:10 17.04
05:20 17.04
05:30 17.04
05:40 17.04
05:50 17.04
06:00 17.04
06:10 17.04
06:20 17.04
06:30 17.04
06:40 17.04
06:50 17.04
07:00 17.04
07:10 17.04
07:20 17.04
08:30 17.04
08:50 17.04
10:40 17.04
16:20 17.04
16:40 17.04
16:50 17.04
17:00 17.04
17:10 17.04
17:20 17.04
17:30 17.04
17:40 17.04
17:50 17.04
18:00 17.04
18:10 17.04
18:20 17.04
18:30 17.04
18:40 17.04
18:50 17.04
19:00 17.04
19:10 17.04
19:20 17.04
19:30 17.04
19:40 17.04
19:50 17.04
20:00 17.04
20:10 17.04
20:20 17.04
20:30 17.04
20:40 17.04
20:50 17.04
21:00 17.04
21:20 17.04
21:30 17.04
21:40 17.04
21:50 17.04
22:00 17.04
22:10 17.04
22:20 17.04
22:30 17.04
22:40 17.04
22:50 17.04
23:00 17.04
23:10 17.04
23:20 17.04
23:30 17.04
23:40 17.04
23:50 17.04
00:00 18.04
00:10 18.04
00:20 18.04
00:30 18.04
00:50 18.04
01:00 18.04
01:10 18.04
01:20 18.04
01:30 18.04
01:40 18.04
01:50 18.04
02:00 18.04
02:20 18.04
02:30 18.04
02:40 18.04
02:50 18.04
03:00 18.04
03:10 18.04
03:20 18.04
03:30 18.04
03:40 18.04
03:50 18.04
04:00 18.04
04:10 18.04
04:20 18.04
04:30 18.04
04:50 18.04
05:00 18.04
05:40 18.04
05:50 18.04
06:00 18.04
06:10 18.04
06:20 18.04
06:30 18.04
06:40 18.04
06:50 18.04
07:00 18.04
07:10 18.04
07:30 18.04
07:40 18.04
07:50 18.04
08:00 18.04
08:10 18.04
08:20 18.04
11:00 18.04
11:40 18.04
12:20 20.04
12:30 20.04
12:40 20.04
13:00 20.04
13:20 20.04
13:30 20.04
13:40 20.04
13:50 20.04
14:10 20.04
14:20 20.04
14:40 20.04
14:50 20.04
15:00 20.04
15:10 20.04
15:20 20.04
15:30 20.04
15:50 20.04
16:00 20.04
16:10 20.04
16:20 20.04
16:40 20.04
17:00 20.04
17:10 20.04
17:30 20.04
Ветер
(напр.,м/с)
Видимость Явления Солнечная радиация
(Вт/м2)
Т
(С)
Тd
(С)
f
(%)
Тe
(С)
Тes
(С)
Комфортность P
(гПа)
Po
(гПа)
Тmin
(С)
Tmax
(С)
R
(мм)
СВ 1.9
{2.7}
+16.1 +5.3 49 +16 +16 1022.2 996.7 +16.3 +16.1
СВ 1.6
{2.8}
+16.0 +5.4 49 +16 +16 1022.2 996.7 +16.1 +16.0
СВ 1.3
{2.2}
+15.8 +5.8 51 +16 +16 1022.2 996.7 +16.0 +15.8
СВ 1.3
{2.3}
+15.8 +5.8 52 +16 +16 1022.2 996.7 +15.8 +15.7
В 1.5
{3.0}
+15.7 +5.9 52 +16 +16 1022.3 996.8 +15.8 +15.7
В 1.6
{3.5}
+15.7 +6.0 52 +16 +16 1022.3 996.8 +15.7 +15.7
В 1.6
{2.9}
+15.6 +6.1 53 +16 +16 1022.3 996.8 +15.7 +15.6
СВ 1.3
{2.1}
+15.3 +6.2 55 +16 +16 1022.3 996.8 +15.6 +15.3
СВ 1.0
{2.0}
+15.1 +6.3 56 +16 +16 1022.4 996.9 +15.3 +15.1
СВ 0.8
{1.8}
+14.9 +6.3 56 +16 +16 1022.5 997.0 +15.1 +14.9
С 0.8
{1.4}
+14.5 +5.9 56 +15 +15 1022.5 997.0 +14.9 +14.4
СВ 0.7
{1.6}
+14.1 +6.3 59 +15 +15 1022.6 997.1 +14.5 +14.1
В 0.6
{1.7}
+14.1 +6.3 59 +15 +15 1022.6 997.1 +14.3 +14.1
В 0.5
{1.5}
+13.9 +6.4 60 +15 +15 1022.7 997.2 +14.1 +13.9
В 0.7
{1.9}
+14.2 +6.5 60 +15 +15 1022.8 997.3 +14.2 +13.9
С 0.7
{1.7}
+13.6 +6.1 60 +14 +14 1022.8 997.3 +14.2 +13.4
СВ 0.3
{0.6}
+13.2 +6.2 63 +15 +15 1022.9 997.4 +13.6 +13.2
С 0.5
{1.0}
+13.0 +6.2 63 +14 +14 1023.0 997.5 +13.2 +12.8
С 0.8
{1.5}
+13.6 +6.3 61 +14 +14 1023.0 997.5 +13.6 +12.9
С 0.5
{1.2}
+13.2 +6.5 64 +14 +14 1023.2 997.7 +13.6 +13.1
СВ 0.9
{1.5}
+13.1 +6.5 64 +14 +14 1023.2 997.7 +13.4 +13.2
СВ 0.7
{1.5}
+13.0 +6.7 65 +14 +14 1023.3 997.8 +13.1 +12.9
СВ 0.5
{1.0}
+12.7 +6.8 67 +14 +14 1023.4 997.9 +13.0 +12.7
СВ 0.5
{1.0}
+13.0 +6.7 66 +14 +14 1023.5 998.0 +13.0 +12.7
СВ 0.8
{1.8}
+13.6 +7.2 65 +14 +14 1023.6 998.1 +13.6 +13.0
СВ 0.9
{2.0}
+15.2 +7.0 58 +16 +16 1023.7 998.2 +15.2 +13.6
СВ 1.0
{2.0}
+16.2 +7.0 54 +17 +17 1023.8 998.3 +16.2 +15.2
СЗ 1.0
{2.0}
+19.0 +7.8 48 +21 +21 комфорт 1023.8 998.3 +19.1 +18.9
З 1.3
{2.6}
+19.5 +7.9 47 +21 +21 комфорт 1023.7 998.2 +19.7 +19.4
ЮВ 1.3
{2.6}
+23.7 +5.4 31 +24 +24 комфорт 1023.3 997.8 +23.8 +23.6
СВ 2.4
{6.0}
+28.4 -2.4 13 +26 +26 жарко 1019.6 994.2 +28.6 +28.4
С 2.8
{6.8}
+28.4 -2.3 13 +26 +26 жарко 1019.4 994.0 +28.7 +28.4
С 4.3
{8.4}
+28.1 -2.9 13 +25 +25 комфорт 1019.3 993.9 +28.5 +28.1
СВ 2.7
{6.0}
+28.5 -2.6 13 +26 +26 жарко 1019.3 993.9 +28.5 +28.0
СВ 2.9
{6.7}
+28.5 -2.3 13 +26 +26 жарко 1019.3 993.9 +28.6 +28.3
С 3.2
{7.0}
+27.9 -2.8 13 +25 +25 комфорт 1019.2 993.8 +28.5 +27.9
СВ 3.1
{7.2}
+28.2 -2.4 13 +25 +25 комфорт 1019.1 993.7 +28.3 +27.9
СВ 3.3
{6.1}
+28.1 -2.4 13 +25 +25 комфорт 1019.1 993.7 +28.3 +28.0
СВ 3.0
{6.1}
+27.9 -2.3 14 +25 +25 комфорт 1019.1 993.7 +28.1 +27.9
СВ 4.1
{8.3}
+27.7 -2.8 13 +25 +25 комфорт 1019.1 993.7 +27.9 +27.7
СВ 4.0
{8.7}
+27.6 -2.6 14 +25 +25 комфорт 1019.0 993.6 +27.7 +27.6
СВ 4.1
{8.8}
+27.4 -2.5 14 +25 +25 комфорт 1019.0 993.6 +27.6 +27.4
СВ 3.6
{7.1}
+27.3 -2.9 14 +25 +25 комфорт 1019.0 993.6 +27.5 +27.3
СВ 3.6
{6.3}
+27.1 -2.9 14 +25 +25 комфорт 1019.0 993.6 +27.3 +27.1
СВ 4.1
{7.1}
+27.0 -2.7 14 +24 +24 комфорт 1019.0 993.6 +27.1 +27.0
СВ 4.0
{7.2}
+26.8 -2.7 14 +24 +24 комфорт 1019.0 993.6 +27.0 +26.8
СВ 3.8
{7.4}
+26.6 -2.6 14 +24 +24 комфорт 1019.0 993.6 +26.8 +26.6
СВ 2.8
{5.8}
+26.4 -2.6 15 +24 +24 комфорт 1019.0 993.6 +26.6 +26.4
СВ 3.4
{5.6}
+26.2 -2.0 16 +24 +24 комфорт 1019.0 993.6 +26.4 +26.2
СВ 3.9
{6.9}
+26.0 -1.6 16 +24 +24 комфорт 1019.1 993.7 +26.2 +26.0
СВ 3.3
{5.9}
+25.7 -1.5 17 +24 +24 комфорт 1019.1 993.7 +26.0 +25.7
СВ 2.9
{5.1}
+25.3 -1.4 17 +23 +23 комфорт 1019.2 993.8 +25.7 +25.3
СВ 3.4
{5.9}
+25.1 -1.3 18 +23 +23 комфорт 1019.3 993.9 +25.3 +25.1
СВ 3.2
{5.5}
+24.8 -1.2 18 +23 +23 комфорт 1019.4 994.0 +25.1 +24.8
СВ 3.0
{6.8}
+24.6 -1.0 18 +23 +23 комфорт 1019.5 994.1 +24.8 +24.6
СВ 3.4
{5.7}
+24.4 -0.9 19 +23 +23 комфорт 1019.6 994.2 +24.6 +24.4
СВ 3.5
{6.1}
+24.2 -0.9 19 +23 +23 комфорт 1019.6 994.2 +24.4 +24.2
СВ 3.4
{5.7}
+24.0 -0.8 19 +23 +23 комфорт 1019.7 994.3 +24.2 +24.0
СВ 2.8
{5.6}
+23.6 -0.6 20 +22 +22 комфорт 1019.8 994.4 +23.8 +23.6
СВ 2.9
{5.3}
+23.4 -0.5 21 +22 +22 комфорт 1019.9 994.5 +23.6 +23.4
СВ 2.5
{4.2}
+23.3 -0.4 21 +22 +22 комфорт 1019.9 994.5 +23.4 +23.3
СВ 2.4
{4.1}
+23.1 -0.4 21 +22 +22 комфорт 1019.9 994.5 +23.3 +23.1
СВ 2.2
{3.9}
+22.9 -0.3 21 +22 +22 комфорт 1020.0 994.6 +23.1 +22.9
СВ 2.3
{3.7}
+22.8 -0.2 22 +22 +22 комфорт 1020.0 994.6 +22.9 +22.8
СВ 1.9
{3.3}
+22.7 0.0 22 +22 +22 комфорт 1020.0 994.6 +22.8 +22.6
СВ 2.2
{3.6}
+22.5 +0.2 23 +22 +22 комфорт 1020.0 994.6 +22.7 +22.6
СВ 2.0
{3.5}
+22.4 +0.3 23 +22 +22 комфорт 1019.9 994.5 +22.5 +22.4
СВ 2.0
{3.5}
+22.2 +0.5 24 +22 +22 комфорт 1019.9 994.5 +22.4 +22.2
СВ 1.5
{2.7}
+22.1 +0.6 24 +22 +22 комфорт 1019.9 994.5 +22.2 +22.1
СВ 1.5
{2.6}
+22.0 +0.7 24 +21 +21 комфорт 1019.8 994.4 +22.1 +22.0
СВ 1.7
{3.6}
+21.9 +0.7 25 +21 +21 комфорт 1019.8 994.4 +22.0 +21.9
СВ 1.8
{3.3}
+21.9 +0.8 25 +21 +21 комфорт 1019.8 994.4 +21.9 +21.9
СВ 1.7
{3.3}
+21.9 +0.7 24 +21 +21 комфорт 1019.7 994.3 +21.9 +21.9
СВ 1.7
{3.7}
+21.9 +0.5 24 +21 +21 комфорт 1019.6 994.2 +21.9 +21.9
СВ 1.8
{3.3}
+21.9 +0.3 24 +21 +21 комфорт 1019.6 994.2 +21.9 +21.9
СВ 1.6
{3.9}
+21.8 +0.3 24 +21 +21 комфорт 1019.5 994.1 +21.9 +21.8
С 1.5
{3.1}
+21.5 +0.3 24 +21 +21 комфорт 1019.5 994.1 +21.8 +21.5
СВ 1.7
{3.1}
+21.3 +0.5 25 +21 +21 комфорт 1019.4 994.0 +21.5 +21.4
СВ 1.7
{3.2}
+21.1 +0.6 26 +21 +21 комфорт 1019.3 993.9 +21.3 +21.1
СВ 1.8
{3.3}
+20.9 +0.7 26 +22 +22 комфорт 1019.3 993.9 +21.1 +20.9
СВ 1.6
{2.7}
+20.8 +0.7 26 +22 +22 комфорт 1019.3 993.9 +20.9 +20.7
СВ 2.0
{3.7}
+20.8 +0.8 26 +22 +22 комфорт 1019.2 993.8 +20.8 +20.7
СВ 2.2
{4.2}
+20.9 +0.7 26 +22 +22 комфорт 1019.1 993.7 +20.9 +20.8
СВ 2.5
{4.6}
+21.0 +0.7 26 +22 +22 комфорт 1019.0 993.6 +21.0 +20.9
СВ 2.6
{4.9}
+20.9 +0.8 26 +21 +21 комфорт 1018.9 993.5 +21.0 +20.9
С 2.4
{5.2}
+20.5 +0.8 27 +21 +21 комфорт 1018.9 993.5 +20.9 +20.4
СВ 3.2
{5.8}
+20.3 +0.9 27 +21 +21 комфорт 1018.8 993.4 +20.4 +20.3
СВ 3.7
{5.9}
+20.3 +0.9 27 +21 +21 комфорт 1018.7 993.3 +20.3 +20.3
СВ 3.6
{6.1}
+20.2 +1.0 28 +21 +21 комфорт 1018.6 993.2 +20.4 +20.2
СВ 3.2
{6.3}
+20.0 +1.0 28 +20 +20 1018.7 993.3 +20.2 +20.0
С 3.4
{5.9}
+19.9 +1.1 28 +20 +20 1018.7 993.3 +20.0 +19.9
СВ 3.4
{5.5}
+19.8 +1.3 29 +20 +20 1018.7 993.3 +19.9 +19.8
СВ 3.3
{5.7}
+19.8 +1.4 29 +20 +20 1018.7 993.3 +19.8 +19.7
СВ 3.6
{5.6}
+19.7 +1.5 30 +20 +20 1018.7 993.3 +19.8 +19.7
СВ 3.5
{6.2}
+19.6 +1.8 30 +20 +20 1018.6 993.2 +19.7 +19.6
СВ 3.6
{5.6}
+19.4 +1.9 31 +20 +20 1018.6 993.2 +19.6 +19.4
С 3.1
{5.2}
+19.4 +1.8 31 +20 +20 1018.6 993.2 +19.4 +19.3
С 3.2
{6.6}
+19.2 +1.8 31 +20 +20 1018.7 993.3 +19.4 +19.2
С 3.8
{6.9}
+19.1 +1.8 31 +19 +19 1018.6 993.2 +19.3 +19.1
СВ 3.7
{6.7}
+18.9 +1.9 32 +19 +19 1018.5 993.1 +19.1 +18.9
СВ 3.0
{5.3}
+18.8 +2.4 34 +19 +19 1018.4 993.0 +18.8 +18.7
С 2.8
{4.9}
+18.5 +2.6 34 +19 +19 1018.4 993.0 +18.8 +18.5
СВ 2.7
{4.7}
+18.3 +3.2 37 +19 +19 1018.5 993.1 +18.4 +18.3
СВ 2.5
{4.4}
+18.4 +3.3 37 +19 +19 1018.6 993.2 +18.4 +18.3
СВ 3.0
{5.3}
+18.5 +3.3 36 +19 +19 1018.6 993.2 +18.5 +18.4
СВ 3.3
{5.7}
+18.6 +3.3 36 +19 +19 1018.7 993.3 +18.6 +18.5
С 3.1
{5.9}
+18.5 +3.4 36 +19 +19 1018.6 993.2 +18.6 +18.5
С 3.3
{6.1}
+18.6 +3.5 36 +19 +19 1018.6 993.2 +18.6 +18.5
С 3.0
{5.6}
+18.7 +3.6 37 +19 +19 1018.6 993.2 +18.7 +18.6
СВ 3.4
{5.7}
+18.8 +3.7 37 +19 +19 1018.6 993.2 +18.8 +18.7
СВ 3.5
{6.2}
+18.9 +3.8 37 +19 +19 1018.6 993.2 +18.9 +18.8
СВ 4.0
{6.4}
+19.2 +3.8 36 +20 +20 1018.7 993.3 +19.2 +18.9
СВ 4.3
{6.9}
+19.9 +4.1 35 +20 +20 1018.8 993.4 +19.8 +19.5
СВ 5.2
{8.1}
+20.3 +4.3 35 +21 +21 комфорт 1018.7 993.3 +20.3 +19.9
СВ 4.6
{8.7}
+20.8 +4.4 34 +21 +21 комфорт 1018.7 993.3 +20.8 +20.3
СВ 4.0
{8.0}
+21.3 +4.5 33 +22 +22 комфорт 1018.8 993.4 +21.3 +20.8
СВ 4.1
{7.7}
+21.7 +4.4 32 +22 +22 комфорт 1018.7 993.3 +21.7 +21.3
СВ 5.1
{8.9}
+22.0 +4.3 31 +22 +22 комфорт 1018.7 993.3 +22.0 +21.7
СВ 5.2
{11.8}
+26.4 +0.9 19 +25 +25 комфорт 1017.9 992.5 +26.7 +26.4
СВ 4.9
{12.7}
+27.5 +0.2 17 +25 +25 комфорт 1017.4 992.0 +27.8 +27.3
СВ 2.5
{5.9}
+28.7 +2.7 19 +27 +27 жарко 1009.2 984.0 +28.7 +28.3
В 2.9
{6.2}
+28.8 +2.6 19 +27 +27 жарко 1009.1 983.9 +29.1 +28.7
СВ 2.3
{5.1}
+29.0 +2.6 18 +27 +27 жарко 1009.1 983.9 +29.3 +28.6
В 2.4
{5.0}
+29.4 +2.7 18 +27 +27 жарко 1009.0 983.8 +29.5 +29.0
В 2.8
{6.5}
+29.3 +3.2 19 +27 +27 жарко 1008.9 983.7 +29.4 +29.1
В 2.2
{6.9}
+29.7 +3.0 18 +28 +28 жарко 1008.8 983.6 +30.0 +29.3
ЮВ 1.6
{3.3}
+30.2 +3.0 18 +28 +28 жарко 1008.8 983.6 +30.2 +29.5
ЮВ 2.7
{8.4}
+29.8 +3.3 18 +28 +28 жарко 1008.7 983.5 +30.3 +29.9
ЮВ 1.8
{4.9}
+30.3 +3.3 18 +28 +28 жарко 1008.6 983.4 +30.3 +29.8
Ю 2.3
{8.5}
+30.2 +2.9 18 +28 +28 жарко 1008.5 983.3 +30.5 +30.1
ЮВ 2.4
{5.1}
+30.1 +2.3 17 +28 +28 жарко 1008.4 983.2 +30.2 +29.8
ЮВ 3.6
{7.4}
+30.2 +2.1 17 +28 +28 жарко 1008.2 983.0 +30.2 +29.8
В 2.5
{6.4}
+30.6 +1.8 16 +28 +28 жарко 1008.3 983.1 +30.6 +30.0
ЮВ 3.4
{7.6}
+29.9 +2.0 17 +28 +28 жарко 1008.2 983.0 +30.6 +29.9
ЮВ 3.3
{7.1}
+29.9 +2.4 17 +28 +28 жарко 1008.2 983.0 +30.1 +29.6
ЮВ 2.6
{5.8}
+30.0 +2.5 17 +28 +28 жарко 1008.2 983.0 +30.1 +29.8
В 2.1
{7.2}
+30.5 +1.7 16 +28 +28 жарко 1008.2 983.0 +30.6 +29.9
В 2.4
{5.6}
+30.2 +2.0 16 +28 +28 жарко 1008.3 983.1 +30.5 +30.0
В 2.2
{5.8}
+30.7 +2.7 17 +28 +28 жарко 1008.3 983.1 +30.8 +30.2
ЮВ 2.6
{4.5}
+30.1 +2.3 17 +28 +28 жарко 1008.3 983.1 +30.7 +29.8
ЮВ 3.6
{6.3}
+30.4 +1.8 16 +28 +28 жарко 1008.2 983.0 +30.5 +30.3
Ю 4.2
{7.5}
+30.1 +0.6 15 +27 +27 жарко 1008.2 983.0 +30.6 +30.1
Ю 3.1
{6.4}
+30.6 -0.1 14 +28 +28 жарко 1008.2 983.0 +30.7 +30.1
Ю 3.0
{5.7}
+30.2 +0.6 15 +27 +27 жарко 1008.2 983.0 +30.4 +30.2
Местоположение метеостанции Учкудук (Навоийская область, Узбекистан): широта 42.14 долгота 63.56 высота над уровнем моря 0 м.
В архиве по умолчанию представлена погода в Учкудуке за последние 1-2 суток. Обновление информации о фактической погоде в базе происходит ежечасно! Архивные данные за месяц целиком и за предыдущие месяцы Вы можете получить, выбрав интересующий диапазон дат из раскрывающегося списка и нажав кнопку "Ввод!".
*Определитесь, кто Вы:
Внимание! Время в таблицах - местное (без учета летнего времени). Для получения всемирного времени необходимо вычесть поправку, которая равна 5 ч.
Смотрите также архив погоды на ближайших метеорологических станциях:
Партнеры нашего сайта:      
Пояснения к столбцам:
  • Ветер - указаны скорость ветра в м/с - средняя за 10 мин, порывы в срок и между сроками (в фигурных скобках) и направление, откуда дует ветер: С - северный,
  • СВ - северо-восточный, В - восточный, ЮВ - юго-восточный, Ю - южный, ЮЗ - юго-западный, З - западный, СЗ - северо-западный.
  • Видимость - горизонтальная дальность видимости в метрах или километрах. При видимости от 1 до 10 км при отсутствии осадков обычно наблюдается дымка, при ухудшении видимости до 1 км и менее - туман. В сухую погоду видимость может ухудшаться дымом, пылью или мглою.
  • Явления - указаны атмосферные явления, наблюдавшиеся в срок или в последний час перед сроком.
  • Солнечная радиация - мощность потока солнечного излучения на поверхность земли и предметов в Вт/м2.
  • T - Температура воздуха - температура, измеренная на высоте 2 м над землей.
  • Td - Температура точки росы - температура, при понижении до которой содержащийся в воздухе водяной пар достигнет насыщения.
  • f - Относительная влажность воздуха - влажноcть воздуха, измеренная на высоте 2 м над землей.
  • Te - Эффективная температура - температура, которую ощущает одетый по сезону человек в тени. Характеристика душности погоды. При расчете учитывается влияние влажности воздуха и скорости ветра на теплоощущения человека.
  • Tes - Эффективная температура на солнце - температура, которую ощущает человек, с поправкой на солнечный нагрев. Характеристика знойности погоды. Зависит от высоты солнца над горизонтом, облачности и скорости ветра. Ночью, в пасмурную погоду, а также при ветре 12 м/с и более поправка равна нулю.
  • P - Атмосферное давление - приведенное к уровню моря атмосферное давление.
  • Po - Атмосферное давление - измеренное на уровне метеостанции атмосферное давление.
  • Tmin - Минимальная температура - минимум температуры воздуха на высоте 2 м над землей.
  • Tmax - Максимальная температура - максимум температуры воздуха на высоте 2 м над землей.
  • R - Количество осадков - Количество выпавших осадков за период времени, мм. При наведении курсора мыши на число - период времени, за который выпало указанное количество осадков.